QPF
0.01 0.02 0.02 0.01 0.01 0.01 0.01 0.01 0.01 0.01 0.01 0.02 0.02 0.02 0.01 0.01 0.01 0.02 0.03 0.03 0.03 0.02 0.02 0.02 0.03 0.03 0.02 0.02 0.02 0.02 0.02 0.03 0.02 0.02 0.02 0.02 0.02 0.02 0.02 0.02 0.02 0.02 0.02 0.02
0.02 0.02 0.01 0.01 0.01 0.01 0.01 0.01 0.01 0.02 0.02 0.02 0.02 0.02 0.02 0.01 0.01 0.02 0.02 0.04 0.04 0.04 0.03 0.02 0.02 0.02 0.02 0.02 0.01 0.02 0.02 0.02 0.02 0.02 0.01 0.01 0.02 0.02 0.02 0.02 0.02 0.02 0.02 0.02
0.01 0.02 0.01 0.01 0.01 0.01 0.01 0.01 0.01 0.02 0.02 0.02 0.02 0.03 0.02 0.02 0.01 0.02 0.02 0.02 0.04 0.05 0.06 0.05 0.04 0.03 0.02 0.02 0.02 0.02 0.02 0.02 0.02 0.02 0.02 0.01 0.01 0.01 0.02 0.01 0.01 0.01 0.01 0.01
0.01 0.01 0.01 0.01 0.02 0.02 0.02 0.02 0.01 0.02 0.03 0.04 0.03 0.04 0.02 0.02 0.01 0.01 0.01 0.02 0.03 0.03 0.04 0.04 0.04 0.04 0.03 0.02 0.03 0.02 0.02 0.02 0.02 0.02 0.02 0.02 0.01 0.01 0.01 0.01 0.01 0.01 0.01 0.01
0.01 0.01 0.01 0.02 0.02 0.02 0.02 0.02 0.02 0.03 0.03 0.04 0.04 0.03 0.01 0.01 0.01 0.01 0.01 0.01 0.02 0.03 0.03 0.04 0.04 0.04 0.05 0.04 0.03 0.03 0.02 0.02 0.03 0.03 0.03 0.03 0.03 0.02 0.02 0.02 0.02 0.03 0.03 0.03
0.00 0.00 0.01 0.01 0.01 0.01 0.01 0.02 0.02 0.02 0.04 0.05 0.03 0.02 0.01 0.00 0.00 0.00 0.00 0.01 0.01 0.02 0.02 0.03 0.03 0.03 0.04 0.04 0.03 0.02 0.03 0.03 0.04 0.04 0.05 0.04 0.04 0.04 0.04 0.03 0.02 0.02 0.03 0.03
0.01 0.00 0.00 0.01 0.02 0.02 0.02 0.03 0.04 0.04 0.04 0.03 0.01 0.01 0.01 0.00 0.00 0.00 0.01 0.01 0.01 0.01 0.01 0.01 0.01 0.02 0.03 0.03 0.03 0.03 0.03 0.04 0.05 0.05 0.06 0.06 0.06 0.06 0.05 0.05 0.03 0.03 0.03 0.03
0.01 0.01 0.00 0.00 0.01 0.03 0.02 0.03 0.04 0.03 0.02 0.01 0.01 0.01 0.01 0.00 0.00 0.00 0.00 0.01 0.01 0.01 0.01 0.00 0.01 0.01 0.01 0.01 0.01 0.01 0.01 0.02 0.03 0.04 0.04 0.05 0.06 0.07 0.07 0.06 0.06 0.04 0.03 0.03
0.01 0.01 0.00 0.00 0.01 0.02 0.02 0.02 0.02 0.03 0.02 0.01 0.01 0.01 0.01 0.00 0.00 0.00 0.00 0.00 0.00 0.00 0.00 0.00 0.01 0.01 0.01 0.00 0.00 0.00 0.00 0.01 0.02 0.03 0.04 0.04 0.05 0.07 0.08 0.08 0.08 0.07 0.06 0.05
0.01 0.01 0.00 0.00 0.00 0.01 0.01 0.02 0.02 0.04 0.03 0.02 0.01 0.01 0.02 0.01 0.01 0.00 0.00 0.00 0.00 0.00 0.00 0.00 0.00 0.00 0.00 0.00 0.00 0.00 0.00 0.00 0.01 0.01 0.02 0.04 0.04 0.04 0.05 0.06 0.07 0.07 0.07 0.07
0.01 0.01 0.00 0.00 0.01 0.01 0.01 0.02 0.04 0.04 0.02 0.02 0.03 0.02 0.01 0.01 0.01 0.01 0.00 0.01 0.01 0.00 0.00 0.00 0.00 0.00 0.00 0.00 0.00 0.00 0.00 0.00 0.01 0.01 0.01 0.02 0.04 0.05 0.05 0.06 0.07 0.08 0.08 0.09
0.00 0.01 0.01 0.00 0.01 0.02 0.02 0.02 0.02 0.03 0.03 0.02 0.02 0.02 0.01 0.01 0.02 0.01 0.00 0.00 0.00 0.00 0.00 0.00 0.00 0.01 0.00 0.00 0.00 0.00 0.00 0.00 0.01 0.01 0.01 0.02 0.03 0.04 0.05 0.06 0.06 0.06 0.07 0.07
0.01 0.01 0.01 0.01 0.01 0.02 0.01 0.01 0.01 0.02 0.02 0.02 0.02 0.02 0.01 0.00 0.01 0.02 0.01 0.00 0.00 0.00 0.00 0.00 0.01 0.01 0.00 0.00 0.00 0.00 0.00 0.01 0.01 0.01 0.01 0.02 0.02 0.03 0.03 0.03 0.04 0.04 0.04 0.04
0.01 0.01 0.01 0.02 0.01 0.02 0.02 0.01 0.01 0.01 0.02 0.02 0.02 0.02 0.01 0.00 0.01 0.02 0.02 0.01 0.01 0.00 0.01 0.01 0.01 0.01 0.01 0.01 0.01 0.00 0.00 0.01 0.01 0.01 0.01 0.01 0.02 0.02 0.03 0.03 0.03 0.03 0.03 0.02
0.01 0.01 0.00 0.01 0.00 0.00 0.02 0.02 0.01 0.01 0.01 0.01 0.01 0.01 0.00 0.00 0.00 0.02 0.02 0.02 0.02 0.01 0.01 0.01 0.00 0.00 0.00 0.00 0.00 0.00 0.00 0.01 0.01 0.01 0.01 0.02 0.02 0.02 0.03 0.03 0.02 0.02 0.02 0.01
0.01 0.01 0.00 0.00 0.00 0.01 0.01 0.01 0.01 0.01 0.01 0.01 0.01 0.01 0.01 0.00 0.01 0.01 0.02 0.02 0.02 0.02 0.02 0.01 0.01 0.00 0.00 0.00 0.00 0.01 0.01 0.01 0.01 0.01 0.01 0.02 0.01 0.01 0.02 0.02 0.01 0.01 0.01 0.01
0.00 0.01 0.01 0.00 0.00 0.00 0.01 0.00 0.00 0.01 0.01 0.01 0.01 0.00 0.00 0.00 0.00 0.01 0.02 0.02 0.03 0.03 0.03 0.02 0.02 0.01 0.01 0.01 0.01 0.01 0.01 0.01 0.01 0.01 0.01 0.01 0.01 0.01 0.01 0.01 0.01 0.01 0.01 0.01
0.01 0.01 0.01 0.01 0.00 0.00 0.00 0.01 0.01 0.00 0.01 0.00 0.00 0.00 0.00 0.00 0.00 0.01 0.02 0.03 0.03 0.03 0.03 0.03 0.02 0.02 0.02 0.02 0.01 0.01 0.01 0.01 0.01 0.01 0.02 0.02 0.02 0.02 0.02 0.01 0.01 0.01 0.01 0.01
0.01 0.01 0.01 0.01 0.00 0.00 0.00 0.00 0.01 0.01 0.01 0.01 0.00 0.00 0.00 0.00 0.00 0.00 0.01 0.03 0.03 0.03 0.04 0.03 0.03 0.02 0.02 0.02 0.01 0.01 0.01 0.01 0.01 0.01 0.01 0.01 0.01 0.01 0.02 0.03 0.03 0.02 0.01 0.01
0.00 0.00 0.01 0.00 0.00 0.00 0.00 0.00 0.00 0.01 0.02 0.01 0.00 0.00 0.00 0.00 0.00 0.00 0.00 0.01 0.02 0.03 0.03 0.03 0.03 0.02 0.02 0.01 0.01 0.01 0.01 0.00 0.00 0.01 0.01 0.01 0.01 0.01 0.01 0.01 0.02 0.03 0.02 0.01
0.01 0.01 0.01 0.01 0.01 0.00 0.00 0.00 0.00 0.00 0.01 0.00 0.00 0.00 0.00 0.00 0.00 0.00 0.00 0.00 0.00 0.01 0.01 0.01 0.01 0.01 0.01 0.00 0.00 0.00 0.00 0.00 0.00 0.00 0.00 0.00 0.00 0.00 0.00 0.00 0.00 0.01 0.01 0.02
0.00 0.00 0.00 0.00 0.01 0.00 0.00 0.00 0.00 0.00 0.00 0.00 0.00 0.00 0.01 0.00 0.00 0.00 0.00 0.00 0.00 0.00 0.00 0.00 0.00 0.00 0.00 0.00 0.00 0.00 0.00 0.00 0.00 0.00 0.00 0.00 0.00 0.00 0.00 0.00 0.00 0.00 0.00 0.00
0.00 0.00 0.00 0.00 0.00 0.00 0.00 0.00 0.00 0.00 0.00 0.00 0.00 0.00 0.00 0.00 0.00 0.00 0.00 0.00 0.00 0.00 0.00 0.00 0.00 0.00 0.00 0.00 0.00 0.00 0.00 0.00 0.00 0.00 0.00 0.00 0.00 0.00 0.00 0.00 0.00 0.00 0.00 0.00
0.00 0.00 0.00 0.00 0.00 0.00 0.00 0.00 0.00 0.00 0.00 0.00 0.00 0.00 0.00 0.00 0.00 0.00 0.00 0.00 0.00 0.00 0.00 0.00 0.01 0.00 0.00 0.00 0.00 0.00 0.00 0.01 0.00 0.00 0.00 0.00 0.00 0.00 0.00 0.00 0.00 0.00 0.00 0.00
0.00 0.00 0.00 0.00 0.00 0.00 0.00 0.00 0.00 0.00 0.00 0.00 0.00 0.00 0.00 0.00 0.00 0.00 0.00 0.00 0.00 0.00 0.00 0.00 0.00 0.00 0.00 0.00 0.00 0.00 0.00 0.01 0.00 0.00 0.00 0.00 0.00 0.00 0.00 0.00 0.00 0.00 0.00 0.00
0.00 0.00 0.00 0.00 0.00 0.00 0.00 0.00 0.00 0.00 0.00 0.00 0.00 0.00 0.00 0.00 0.00 0.00 0.00 0.00 0.00 0.00 0.00 0.00 0.00 0.00 0.00 0.00 0.01 0.01 0.01 0.01 0.00 0.00 0.00 0.00 0.00 0.00 0.00 0.00 0.00 0.00 0.00 0.00
MSLP
1024.46 1025.03 1025.75 1026.57 1027.42 1028.26 1029.05 1029.76 1030.39 1030.95 1031.44 1031.89 1032.29 1032.65 1032.97 1033.22 1033.41 1033.52 1033.56 1033.54 1033.48 1033.40 1033.33 1033.29 1033.28 1033.29 1033.31 1033.31 1033.26 1033.14 1032.96 1032.70 1032.40 1032.09 1031.79 1031.52 1031.31 1031.14 1031.00 1030.85 1030.67 1030.42 1030.09 1029.69
1026.07 1026.58 1027.17 1027.80 1028.44 1029.06 1029.65 1030.20 1030.72 1031.20 1031.67 1032.12 1032.54 1032.92 1033.25 1033.49 1033.65 1033.73 1033.72 1033.64 1033.53 1033.41 1033.31 1033.25 1033.24 1033.26 1033.31 1033.35 1033.37 1033.34 1033.24 1033.09 1032.89 1032.65 1032.41 1032.17 1031.94 1031.72 1031.50 1031.26 1030.98 1030.65 1030.26 1029.82
1027.78 1028.22 1028.68 1029.13 1029.56 1029.97 1030.35 1030.72 1031.09 1031.46 1031.85 1032.23 1032.59 1032.92 1033.20 1033.40 1033.52 1033.56 1033.53 1033.45 1033.34 1033.24 1033.16 1033.12 1033.12 1033.17 1033.24 1033.32 1033.39 1033.43 1033.41 1033.35 1033.24 1033.08 1032.89 1032.67 1032.43 1032.17 1031.88 1031.55 1031.18 1030.77 1030.32 1029.85
1029.43 1029.81 1030.15 1030.45 1030.70 1030.91 1031.11 1031.31 1031.51 1031.73 1031.97 1032.21 1032.44 1032.65 1032.81 1032.92 1032.97 1032.99 1032.97 1032.92 1032.88 1032.85 1032.85 1032.88 1032.94 1033.02 1033.13 1033.23 1033.32 1033.39 1033.43 1033.42 1033.38 1033.28 1033.14 1032.95 1032.71 1032.41 1032.07 1031.67 1031.24 1030.77 1030.30 1029.82
1030.89 1031.22 1031.47 1031.64 1031.76 1031.83 1031.88 1031.92 1031.97 1032.03 1032.08 1032.13 1032.15 1032.16 1032.15 1032.12 1032.09 1032.06 1032.06 1032.09 1032.16 1032.26 1032.39 1032.53 1032.67 1032.81 1032.94 1033.05 1033.14 1033.22 1033.27 1033.29 1033.28 1033.23 1033.13 1032.97 1032.74 1032.45 1032.08 1031.65 1031.19 1030.71 1030.22 1029.76
1032.07 1032.34 1032.52 1032.62 1032.66 1032.65 1032.62 1032.56 1032.48 1032.38 1032.23 1032.05 1031.83 1031.59 1031.35 1031.13 1030.98 1030.91 1030.93 1031.05 1031.25 1031.51 1031.79 1032.07 1032.32 1032.53 1032.68 1032.78 1032.85 1032.90 1032.93 1032.96 1032.97 1032.95 1032.89 1032.77 1032.58 1032.30 1031.95 1031.54 1031.09 1030.61 1030.15 1029.71
1032.91 1033.13 1033.28 1033.35 1033.37 1033.35 1033.30 1033.20 1033.04 1032.81 1032.48 1032.07 1031.59 1031.07 1030.57 1030.14 1029.83 1029.69 1029.71 1029.90 1030.23 1030.65 1031.09 1031.52 1031.87 1032.14 1032.32 1032.41 1032.45 1032.46 1032.46 1032.47 1032.49 1032.50 1032.48 1032.42 1032.28 1032.06 1031.76 1031.40 1030.98 1030.55 1030.12 1029.72
1033.44 1033.62 1033.74 1033.83 1033.89 1033.93 1033.92 1033.84 1033.65 1033.33 1032.85 1032.23 1031.50 1030.72 1029.95 1029.29 1028.81 1028.56 1028.55 1028.79 1029.21 1029.75 1030.33 1030.88 1031.33 1031.66 1031.86 1031.95 1031.96 1031.93 1031.91 1031.91 1031.93 1031.98 1032.02 1032.02 1031.96 1031.81 1031.59 1031.29 1030.93 1030.55 1030.16 1029.79
1033.71 1033.86 1033.99 1034.13 1034.26 1034.39 1034.46 1034.45 1034.28 1033.91 1033.33 1032.55 1031.60 1030.58 1029.57 1028.69 1028.03 1027.65 1027.58 1027.81 1028.27 1028.89 1029.56 1030.19 1030.71 1031.09 1031.31 1031.40 1031.40 1031.36 1031.33 1031.34 1031.40 1031.49 1031.59 1031.67 1031.69 1031.63 1031.49 1031.26 1030.97 1030.63 1030.27 1029.91
1033.85 1033.97 1034.13 1034.32 1034.54 1034.76 1034.94 1035.00 1034.86 1034.49 1033.84 1032.95 1031.85 1030.64 1029.43 1028.36 1027.54 1027.03 1026.87 1027.05 1027.49 1028.12 1028.82 1029.49 1030.05 1030.45 1030.69 1030.80 1030.82 1030.80 1030.80 1030.84 1030.95 1031.11 1031.28 1031.44 1031.54 1031.56 1031.48 1031.32 1031.07 1030.77 1030.42 1030.05
1033.97 1034.09 1034.26 1034.50 1034.78 1035.08 1035.32 1035.43 1035.33 1034.95 1034.27 1033.31 1032.12 1030.80 1029.47 1028.28 1027.33 1026.71 1026.45 1026.54 1026.93 1027.50 1028.17 1028.82 1029.37 1029.79 1030.05 1030.19 1030.25 1030.29 1030.35 1030.46 1030.64 1030.88 1031.13 1031.35 1031.52 1031.60 1031.57 1031.44 1031.22 1030.92 1030.57 1030.18
1034.20 1034.32 1034.50 1034.75 1035.05 1035.35 1035.60 1035.70 1035.59 1035.19 1034.49 1033.50 1032.28 1030.93 1029.56 1028.32 1027.31 1026.62 1026.28 1026.28 1026.57 1027.05 1027.64 1028.23 1028.75 1029.15 1029.44 1029.62 1029.75 1029.86 1030.01 1030.22 1030.48 1030.79 1031.11 1031.39 1031.61 1031.72 1031.71 1031.59 1031.36 1031.06 1030.69 1030.26
1034.61 1034.74 1034.91 1035.13 1035.36 1035.59 1035.74 1035.76 1035.57 1035.12 1034.39 1033.41 1032.21 1030.90 1029.58 1028.38 1027.38 1026.68 1026.29 1026.21 1026.39 1026.77 1027.25 1027.75 1028.21 1028.59 1028.89 1029.13 1029.33 1029.54 1029.79 1030.09 1030.45 1030.83 1031.20 1031.52 1031.75 1031.86 1031.85 1031.71 1031.47 1031.14 1030.74 1030.29
1035.23 1035.37 1035.50 1035.61 1035.71 1035.76 1035.73 1035.57 1035.23 1034.68 1033.91 1032.95 1031.83 1030.63 1029.44 1028.35 1027.45 1026.79 1026.41 1026.28 1026.37 1026.64 1027.00 1027.40 1027.79 1028.13 1028.45 1028.73 1029.02 1029.33 1029.68 1030.08 1030.51 1030.94 1031.34 1031.67 1031.89 1031.99 1031.95 1031.79 1031.52 1031.16 1030.74 1030.27
1036.04 1036.17 1036.21 1036.18 1036.06 1035.86 1035.55 1035.13 1034.58 1033.89 1033.07 1032.13 1031.11 1030.07 1029.07 1028.18 1027.44 1026.89 1026.56 1026.42 1026.45 1026.62 1026.87 1027.17 1027.49 1027.81 1028.13 1028.46 1028.82 1029.23 1029.67 1030.15 1030.64 1031.11 1031.51 1031.82 1032.02 1032.08 1032.01 1031.81 1031.52 1031.14 1030.71 1030.23
1036.93 1037.03 1036.97 1036.74 1036.35 1035.84 1035.21 1034.48 1033.68 1032.82 1031.93 1031.03 1030.13 1029.29 1028.52 1027.86 1027.32 1026.93 1026.69 1026.57 1026.58 1026.67 1026.84 1027.05 1027.31 1027.61 1027.94 1028.33 1028.76 1029.25 1029.77 1030.31 1030.83 1031.30 1031.69 1031.97 1032.12 1032.14 1032.03 1031.80 1031.49 1031.11 1030.67 1030.20
1037.79 1037.84 1037.64 1037.18 1036.51 1035.67 1034.70 1033.66 1032.61 1031.59 1030.63 1029.77 1029.01 1028.36 1027.83 1027.42 1027.11 1026.89 1026.75 1026.69 1026.69 1026.74 1026.85 1027.01 1027.23 1027.52 1027.88 1028.32 1028.83 1029.38 1029.97 1030.55 1031.09 1031.55 1031.90 1032.13 1032.23 1032.19 1032.04 1031.79 1031.47 1031.09 1030.66 1030.20
1038.46 1038.43 1038.08 1037.41 1036.47 1035.32 1034.05 1032.74 1031.47 1030.32 1029.32 1028.51 1027.88 1027.42 1027.12 1026.93 1026.82 1026.76 1026.74 1026.73 1026.74 1026.78 1026.86 1027.00 1027.22 1027.53 1027.94 1028.44 1029.02 1029.65 1030.28 1030.89 1031.42 1031.85 1032.16 1032.33 1032.37 1032.28 1032.09 1031.82 1031.49 1031.12 1030.70 1030.24
1038.77 1038.65 1038.16 1037.30 1036.14 1034.77 1033.28 1031.78 1030.37 1029.14 1028.14 1027.38 1026.88 1026.58 1026.46 1026.45 1026.50 1026.57 1026.63 1026.67 1026.70 1026.75 1026.83 1026.99 1027.24 1027.61 1028.09 1028.68 1029.34 1030.03 1030.71 1031.33 1031.85 1032.25 1032.50 1032.60 1032.58 1032.44 1032.21 1031.91 1031.57 1031.19 1030.77 1030.31
1038.62 1038.40 1037.78 1036.80 1035.51 1034.00 1032.40 1030.81 1029.36 1028.13 1027.16 1026.49 1026.09 1025.92 1025.92 1026.03 1026.17 1026.32 1026.43 1026.51 1026.56 1026.63 1026.75 1026.95 1027.28 1027.74 1028.32 1029.01 1029.76 1030.53 1031.25 1031.88 1032.39 1032.74 1032.92 1032.96 1032.87 1032.66 1032.39 1032.06 1031.69 1031.29 1030.86 1030.38
1037.93 1037.61 1036.91 1035.86 1034.53 1033.01 1031.41 1029.86 1028.47 1027.31 1026.43 1025.85 1025.53 1025.45 1025.52 1025.68 1025.87 1026.04 1026.16 1026.25 1026.33 1026.44 1026.62 1026.91 1027.34 1027.92 1028.63 1029.43 1030.28 1031.12 1031.88 1032.52 1033.00 1033.30 1033.43 1033.39 1033.22 1032.96 1032.62 1032.25 1031.84 1031.41 1030.94 1030.42
1036.70 1036.28 1035.54 1034.50 1033.22 1031.80 1030.33 1028.92 1027.67 1026.65 1025.91 1025.43 1025.19 1025.15 1025.25 1025.41 1025.58 1025.73 1025.85 1025.94 1026.05 1026.21 1026.48 1026.88 1027.44 1028.16 1029.00 1029.93 1030.87 1031.78 1032.57 1033.21 1033.66 1033.91 1033.97 1033.86 1033.61 1033.28 1032.88 1032.45 1031.99 1031.51 1030.99 1030.42
1034.97 1034.47 1033.73 1032.76 1031.62 1030.38 1029.13 1027.95 1026.93 1026.11 1025.51 1025.15 1024.98 1024.97 1025.05 1025.18 1025.31 1025.42 1025.52 1025.63 1025.78 1026.02 1026.39 1026.92 1027.62 1028.48 1029.45 1030.48 1031.51 1032.46 1033.27 1033.89 1034.30 1034.49 1034.49 1034.31 1034.00 1033.60 1033.14 1032.65 1032.13 1031.59 1031.01 1030.38
1032.84 1032.29 1031.58 1030.73 1029.78 1028.79 1027.82 1026.92 1026.16 1025.57 1025.15 1024.90 1024.80 1024.80 1024.86 1024.94 1025.03 1025.12 1025.21 1025.35 1025.57 1025.90 1026.40 1027.07 1027.90 1028.89 1029.97 1031.08 1032.15 1033.12 1033.92 1034.51 1034.87 1035.00 1034.93 1034.69 1034.33 1033.87 1033.36 1032.82 1032.25 1031.65 1031.02 1030.33
1030.46 1029.87 1029.21 1028.51 1027.78 1027.07 1026.40 1025.81 1025.33 1024.96 1024.73 1024.59 1024.55 1024.56 1024.61 1024.67 1024.74 1024.83 1024.96 1025.16 1025.48 1025.93 1026.56 1027.36 1028.32 1029.40 1030.54 1031.69 1032.77 1033.71 1034.47 1035.00 1035.30 1035.37 1035.25 1034.97 1034.57 1034.08 1033.54 1032.97 1032.36 1031.73 1031.05 1030.32
1027.99 1027.37 1026.78 1026.23 1025.73 1025.28 1024.90 1024.60 1024.37 1024.23 1024.15 1024.13 1024.15 1024.20 1024.26 1024.34 1024.43 1024.57 1024.78 1025.09 1025.52 1026.12 1026.87 1027.79 1028.84 1029.98 1031.14 1032.27 1033.31 1034.18 1034.86 1035.31 1035.55 1035.57 1035.41 1035.11 1034.70 1034.21 1033.68 1033.10 1032.49 1031.84 1031.14 1030.39
Thickness
5542 5535 5529 5532 5539 5542 5544 5542 5541 5543 5547 5546 5545 5548 5552 5557 5558 5559 5559 5561 5562 5563 5565 5567 5569 5570 5571 5572 5573 5574 5575 5576 5576 5577 5577 5575 5574 5573 5572 5571 5570 5571 5570 5570
5532 5521 5523 5530 5536 5537 5535 5532 5531 5534 5538 5538 5537 5540 5546 5550 5551 5552 5553 5553 5554 5555 5557 5558 5559 5560 5561 5562 5563 5565 5566 5567 5567 5567 5567 5566 5565 5564 5562 5561 5560 5559 5559 5559
5518 5515 5522 5525 5525 5525 5525 5522 5522 5523 5527 5532 5531 5532 5539 5543 5544 5546 5546 5546 5546 5547 5547 5549 5549 5549 5551 5553 5553 5555 5556 5557 5557 5557 5558 5557 5556 5554 5552 5551 5549 5548 5548 5547
5513 5514 5516 5514 5513 5516 5515 5517 5518 5519 5516 5517 5525 5518 5533 5537 5536 5538 5537 5538 5537 5538 5539 5540 5540 5540 5542 5543 5545 5546 5546 5547 5547 5548 5548 5546 5546 5544 5542 5540 5538 5537 5535 5535
5501 5503 5506 5503 5503 5507 5507 5512 5513 5515 5514 5511 5518 5512 5525 5533 5532 5533 5532 5531 5530 5531 5532 5532 5531 5532 5533 5534 5535 5536 5537 5538 5538 5537 5537 5536 5535 5534 5532 5530 5528 5526 5524 5522
5501 5502 5499 5498 5501 5504 5506 5508 5511 5510 5507 5501 5515 5511 5518 5525 5531 5531 5530 5528 5525 5524 5525 5525 5525 5525 5525 5525 5525 5527 5528 5527 5527 5527 5526 5525 5524 5523 5521 5519 5516 5514 5511 5510
5499 5499 5498 5497 5497 5501 5503 5498 5496 5495 5495 5503 5516 5511 5516 5527 5530 5529 5526 5522 5519 5518 5517 5517 5517 5516 5516 5516 5516 5516 5517 5516 5515 5515 5515 5514 5513 5512 5510 5507 5505 5502 5499 5497
5493 5489 5491 5492 5490 5490 5497 5497 5487 5488 5493 5501 5507 5507 5519 5525 5525 5524 5521 5517 5514 5511 5510 5510 5509 5508 5507 5507 5507 5507 5506 5505 5504 5504 5504 5503 5502 5501 5499 5496 5493 5490 5488 5486
5487 5484 5490 5490 5491 5490 5493 5489 5488 5484 5479 5483 5506 5517 5517 5520 5518 5516 5514 5511 5508 5505 5504 5503 5502 5501 5500 5498 5498 5498 5496 5495 5494 5493 5493 5492 5491 5489 5487 5484 5482 5479 5477 5474
5480 5476 5485 5489 5490 5488 5488 5488 5483 5481 5480 5488 5510 5517 5514 5511 5511 5511 5508 5506 5503 5501 5498 5496 5495 5493 5492 5491 5490 5489 5487 5486 5484 5483 5482 5480 5479 5477 5475 5473 5470 5468 5464 5461
5479 5471 5480 5486 5481 5482 5482 5483 5481 5479 5477 5480 5490 5508 5518 5514 5512 5508 5505 5502 5498 5495 5492 5489 5487 5486 5484 5483 5481 5479 5477 5476 5474 5472 5471 5469 5467 5465 5464 5461 5459 5456 5452 5449
5474 5471 5470 5481 5482 5479 5477 5481 5479 5472 5473 5477 5480 5497 5514 5512 5509 5506 5502 5498 5495 5491 5487 5484 5482 5479 5477 5475 5473 5471 5468 5466 5464 5462 5460 5458 5456 5454 5452 5449 5446 5443 5441 5438
5472 5465 5464 5477 5474 5471 5472 5476 5474 5470 5466 5470 5471 5495 5507 5506 5504 5502 5498 5493 5489 5487 5483 5479 5477 5474 5471 5468 5465 5463 5460 5457 5455 5453 5450 5448 5445 5443 5440 5438 5435 5432 5428 5425
5471 5458 5460 5473 5476 5469 5468 5471 5470 5465 5456 5466 5478 5492 5502 5501 5499 5498 5494 5490 5485 5482 5479 5475 5472 5468 5465 5462 5459 5456 5452 5449 5446 5444 5441 5438 5435 5432 5429 5426 5423 5420 5416 5413
5463 5454 5453 5457 5462 5463 5465 5467 5466 5462 5467 5466 5482 5489 5500 5501 5497 5495 5491 5487 5482 5479 5475 5471 5467 5463 5460 5456 5452 5449 5445 5441 5438 5435 5432 5428 5425 5422 5418 5414 5411 5408 5404 5401
5457 5450 5446 5446 5458 5457 5455 5463 5464 5465 5466 5469 5474 5482 5497 5496 5494 5491 5487 5483 5479 5475 5471 5467 5464 5460 5455 5451 5447 5443 5438 5434 5430 5426 5422 5419 5415 5411 5407 5403 5400 5396 5392 5389
5448 5441 5442 5451 5449 5447 5451 5472 5471 5472 5475 5474 5474 5488 5495 5491 5489 5486 5482 5479 5475 5471 5467 5463 5459 5455 5450 5445 5441 5436 5432 5427 5423 5418 5414 5409 5405 5401 5396 5393 5388 5385 5381 5377
5440 5435 5433 5438 5440 5455 5492 5494 5487 5481 5481 5481 5484 5488 5489 5486 5484 5482 5478 5474 5470 5466 5462 5458 5454 5449 5444 5440 5435 5430 5425 5420 5414 5409 5405 5400 5395 5391 5386 5382 5378 5374 5370 5365
5440 5433 5432 5429 5435 5456 5488 5486 5482 5476 5478 5487 5483 5483 5482 5480 5476 5474 5473 5470 5466 5461 5457 5452 5448 5443 5438 5433 5428 5422 5417 5412 5407 5402 5397 5392 5386 5381 5377 5372 5367 5363 5358 5354
5430 5427 5423 5425 5428 5446 5494 5482 5479 5476 5472 5489 5485 5480 5476 5471 5463 5468 5469 5464 5459 5455 5450 5446 5441 5436 5431 5426 5420 5414 5409 5404 5399 5395 5390 5384 5378 5373 5368 5363 5358 5353 5348 5343
5413 5413 5412 5418 5422 5450 5482 5469 5467 5465 5480 5487 5482 5476 5470 5464 5464 5464 5461 5456 5451 5448 5443 5439 5433 5428 5423 5418 5412 5407 5402 5397 5393 5387 5381 5375 5370 5364 5359 5353 5348 5342 5337 5331
5421 5414 5411 5417 5420 5450 5470 5459 5460 5474 5480 5477 5474 5470 5465 5461 5459 5456 5452 5447 5442 5438 5434 5430 5424 5420 5415 5410 5404 5399 5395 5391 5385 5379 5373 5367 5361 5355 5349 5343 5337 5331 5325 5320
5437 5444 5439 5441 5460 5475 5466 5466 5469 5469 5468 5468 5464 5462 5458 5454 5451 5448 5444 5440 5435 5430 5425 5421 5416 5411 5406 5401 5397 5392 5388 5382 5376 5370 5364 5357 5351 5345 5339 5332 5326 5320 5314 5309
5441 5444 5442 5441 5458 5465 5462 5462 5463 5461 5458 5458 5456 5453 5450 5446 5444 5439 5436 5431 5427 5422 5417 5412 5407 5403 5398 5394 5389 5385 5380 5373 5367 5360 5354 5347 5340 5334 5328 5322 5316 5310 5305 5300
5449 5433 5430 5433 5451 5453 5458 5459 5460 5457 5453 5450 5448 5445 5442 5439 5436 5433 5429 5425 5420 5415 5410 5404 5399 5396 5391 5386 5381 5376 5370 5364 5357 5350 5344 5337 5330 5324 5318 5313 5307 5302 5298 5291
5450 5442 5438 5454 5461 5453 5460 5463 5458 5452 5449 5446 5442 5439 5436 5432 5429 5426 5422 5418 5413 5408 5403 5398 5393 5389 5384 5378 5373 5367 5361 5354 5347 5341 5334 5327 5321 5314 5308 5303 5298 5294 5288 5283